Погода в Кубе

Погода в Кубе : погода сейчас, прогноз погоды и архив. Всё, что Вы хотите узнать о погоде в Кубе!

Поиск расширенной информации на нашем сайте:

Другие новости

Новости СМИ2

Главная страница сайта

Новости сайта

03.07.2017

Напоминаем, что на нашем специализированном сайте Метеоцентр.Азия вы можете получить высокодетализированные автоматические прогнозы погоды по пунктам России, СНГ и мира в авиационном формате (включающие направление и скорость ветра, видимость, явления погоды, количество и форму облачности, нижнюю и верхнюю границу облачности).

Рекомендуем: Знакомство в Одессе бесплатный сайт Знакомств.

Погода в Кубе - сегодня

Время (UTC), дата Ветер
(°,м/с) 
Видим.   Явления Облачность Т
(°С)
Тd
(°С)
f(%) Тe
(°С)
Pmin
(гПа)
dP
(гПа)
Po
(мм)
O2
(г/м3)
Тmin Tmax R s Состояние
почвы
09 18.07.17 070 (В) 20000 м    3/3 1000 м 
[Cu hum]
+32.9 +15.2 35 +43  1008.3  -0.6  712  253           
12 18.07.17 050 (СВ) 20000 м    3/3 1000 м 
[Cu hum]
+33.3 +15.1 34 +44  1007.6  -0.6  711  252           
15 18.07.17 тихо ()   20000 м    ясно 
+31.2 +14.8 37 +41  1008.2  0.2  711  254           
18 18.07.17 050 (СВ) 2000 м    ясно 
+25.5 +16.4 57 +38  1010  0.6  712  259    +34.2       
21 18.07.17 230 (ЮЗ) 2000 м    ясно 
+23.4 +15.6 62 +35  1010.2  -0.3  712  261           
00 19.07.17 270 (З) 2000 м    ясно 
+22.3 +14.5 61 +32  1009.7  -0.6  711  262           
03 19.07.17 270 (З) 20000 м    3/0 верхняя 
[Ci fib]
+24.1 +12.6 49 +30  1009.4  711  261           
06 19.07.17 тихо ()   20000 м    ясно 
+30.6 +15.6 40 +42  1007.9  -0.1  711  254           
09 19.07.17 050 (СВ) 20000 м    ясно 
+32 +14.8 35 +42  1006.6  -1  710  253           
12 19.07.17 090 (В) 20000 м    3/0 верхняя 
[Ci fib]
+32.9 +12.2 28 +38  1005.2  -1.2  709  253           
15 19.07.17 360 (С) 20000 м    3/0 верхняя 
[Ci fib]
+30 +13.5 36 +38  1005.1  -0.5  709  255           
18 19.07.17 270 (З) 2000 м    3/0 верхняя 
[Ci fib]
+25.3 +15.1 53 +36  1006.8  0.7  709  258    +33.6       
21 19.07.17 270 (З) 2000 м    4/0 средняя 
[Ac trans]
+23.7 +15.4 60 +35  1007  -0.1  709  260           
00 20.07.17 320 (СЗ) 2000 м    5/0 средняя 
[Ac trans]
+24.5 +14.2 53 +33  1008.9  1.9  711  260           
03 20.07.17 230 (ЮЗ) 20000 м    6/0 средняя 
[Ac trans]
+23.8 +15 58 +34  1008.4  -0.5  710  260           
06 20.07.17 140 (ЮВ) 20000 м    8/0 средняя 
[Ac und]
+28.8 +18 52 +45  1006.8  -0.5  710  255           
09 20.07.17 140 (ЮВ) 20000 м    3/0 верхняя 
[Ci fib]
+34.5 +13.5 28 +42  1003.8  -1.9  709  251           
12 20.07.17 110 (В) 20000 м    3/0 верхняя 
[Ci fib]
+34.3 +13.7 29 +42  1002.4  -1.3  708  251           
15 20.07.17 050 (СВ) 20000 м    3/0 средняя 
[Ac cast]
+29.1 +15.5 44 +40  1004  0.6  708  255           
18 20.07.17 270 (З) 2000 м    ясно 
+24.2 +16.5 62 +37  1006.9  1.7  709  259    +34.8       
21 20.07.17 270 (З) 2000 м    ясно 
+22.3 +15.9 67 +34  1007.5  0.2  710  261           
00 21.07.17 270 (З) 2000 м    ясно 
+22.3 +14.7 62 +32  1007.9  0.4  710  261           
03 21.07.17 270 (З) 20000 м    4/0 средняя 
[Ac trans]
+23.9 +12.6 49 +30  1008.3  0.7  710  261           
06 21.07.17 360 (С) 20000 м    4/0 средняя 
[Ac trans]
+30.1 +15.4 41 +41  1008.3  1.2  711  255           
09 21.07.17 070 (В) 20000 м    1/0 верхняя 
[Ci]
+29.3 +15.8 44 +41  1009.1  0.6  712  256           
Время (UTC), дата Ветер
(°,м/с) 
Видим.   Явления Облачность Т
(°С)
Тd
(°С)
f(%) Тe
(°С)
Pmin
(гПа)
dP
(гПа)
Po
(мм)
O2
(г/м3)
Тmin Tmax R s Состояние
почвы

Для получения пояснительной информации подведите курсор к названию столбца.

ПОГОДА в Кубе - архив

Всё, что Вы хотите узнать о погоде в Кубе - удобно и подробно!

Выберите нужную дату (начиная с 1 января 2015* года) и нажмите кнопку "Найти".
Будут отображены архивные сводки погоды по пункту Куба, начиная с указанной даты.


Отображать данные в формате CSV (для использования в таблицах Excel)


Внимание! Наш архив погоды предназначен исключительно для личного некоммерческого использования в познавательных целях. Если Вам необходимы официальные справки о состоянии погоды (для производственных, юридических, коммерческих и т.п. целей), обращайтесь в органы Росгидромета.

*Примечание: данная дата относится к архиву по метеостанциям СССР (Россия, СНГ, Балтия).
Архив по метеостанциям Зарубежной Европы и Азии (кроме Китая) хранится 10 дней, по другим регионам земного шара (Китай, Африка, Америка, Австралия, Океания) - 1 день.

Куба - район местоположения метеостанции


Название, широта, долгота, высота метеостанции:
Куба 41.4°ш. 48.5°д. 552 м над ур. моря [Азербайджан]

Дополнительная информация

В oтличие oт бoльшинства пoгoдных сайтoв мы публикуем пoдрoбную метеoинфoрмацию в детальнoм прoфессиoнальнoм фoрмате.

Характеристики температуры и влажнoсти вoздуха измеряются на высoте 2 м в тени вдали oт зданий и деревьев.
Скoрoсть ветра измеряется на высoте 10 м (на урoвне рoста челoвека скoрoсть ветра ниже в 1.5-2 раза). Если метеoстанция нахoдится в гoрoде или в лесу, тo скoрoсть ветра занижена на 2-4 м/с пo сравнению с oткрытым местoм. Скoрoсть ветра над акватoриями крупных рек и oзёр, а также на вершинах хoлмoв на 2-5 м/с выше, чем в oбычных услoвиях.
Атмoсфернoе давление в разных тoчках местнoсти мoжет значительнo oтличаться oт давления на метеoстанции, в зависимoсти oт услoвий рельефа (при пoдъёме на 10 м давление пoнижается примернo на 1 мм рт.ст.).